Weather in Tartu

Estonia     58°22′40″N   26°43′44″E
temp.,
°C
wind,
m/s
gust,
m/s
humid.,
%
clouds,
%
prec.,
mm/h
press.,
hPa
HPBL,
m
15 may, sat
sat1500:00+11ese399866 0.3 1006303
03:00+11ese279788 0.3 1006222
06:00+11ese2695100 0.0 1005194
09:00+14ese3482100 0.3 1005392
12:00+13ese2393100 1.1 1005245
15:00+16se227999 1.8 1004592
18:00+15wsw248897 2.4 1004176
21:00+13w379392 4.0 1005242
16 may, sun
sun1600:00+10w279965 0.0 1005176
03:00+8wnw279810 0.0 1007165
06:00+7w25950 0.0 1008129
09:00+12wsw24775 0.0 1009394
12:00+17wsw245339 0.0 10091167
15:00+19wsw344972 0.0 10081788
18:00+17ese236834 0.1 1008271
21:00+14ese228488 0.4 100828
17 may, mon
mon1700:00+11se22920 0.0 100937
03:00+10se269799 0.0 1008114
06:00+11ese3119699 0.0 1007251
09:00+16se51377100 0.0 1006584
12:00+19s51168100 0.1 10061376
15:00+17ssw4882100 1.6 10051088
18:00+14ssw2593100 4.6 1007406
21:00+12w1196100 4.6 100621
18 may, tue
tue1800:00+10nw2298100 0.0 100647
03:00+9nw22975 0.0 100522
06:00+8nnw12973 0.0 100545
09:00+14e1183100 0.0 1006511
12:00+18e2155100 0.0 10051131
15:00+19ese3249100 0.0 10041503
18:00+17e3355100 0.0 1003611
21:00+13w118599 0.1 100342
19 may, wed
wed1900:00+10wsw129737 0.0 100428
03:00+9sw289976 0.0 1004218
06:00+9wsw4991100 0.0 1004610
09:00+11wsw468075 0.0 1006657
12:00+12sw567182 0.1 10071102
15:00+12wsw4866100 0.1 10071304
18:00+14wsw595759 0.1 10081624
21:00+10wsw410710 0.1 1009727